Location: Recife
(8.0585°S, 34.8848°W)
Time: 21:57:56
(UTC-03:00)

Tiros 1 - Pass Details

Date: 18 April 2026
Orbit: 618 x 649 km, 48.4° (Epoch: 19 May)

Event Time Altitude Azimuth Distance (km) Brightness Sun altitude
Rises 18:43:55 0° 310° (NW) 2,941 11.5 -22.3°
Reaches altitude 10° 18:46:18 10° 304° (NW) 2,036 10.6 -22.9°
Maximum altitude 18:50:50 48° 230° (SW) 841 7.9 -24.0°
Enters shadow 18:52:14 36° 183° (S) 1,017 8.0 -24.3°
